Location: Rogalle
(42.8890°N, 1.1916°E)
Time: 15:21:06
(UTC+00:00)

SJ-6F - Pass Details

Date: 13 December 2025
Orbit: 543 x 569 km, 97.9° (Epoch: 16 January)

Event Time Altitude Azimuth Distance (km) Brightness Sun altitude
Rises 17:38:30 0° 160° (SSE) 2,717 7.9 -13.6°
Reaches altitude 10° 17:40:37 10° 158° (SSE) 1,832 7.0 -14.0°
Maximum altitude 17:44:34 71° 75° (ENE) 595 4.2 -14.7°
Drops below altitude 10° 17:48:34 10° 352° (N) 1,863 6.9 -15.4°
Sets 17:50:44 0° 350° (N) 2,768 7.8 -15.7°
